F8BJE-13 Weather Reports


time (UTC)temp
C
wind
direction
speed
KPH
gust
KPH
rain 1hr
cm
rain 24hr
cm
rain mn
cm
humidity
%
barometer
mb
20260507032735 8 0 0.0 0.0 0.00 1.68 0.00 99 1014.0
20260507025735 8 0 0.0 0.0 0.00 1.68 0.00 99 1013.9
20260507022736 8 166 0.0 0.0 0.00 1.68 0.00 99 1013.9
20260507015736 8 0 0.0 0.0 0.00 1.68 0.00 99 1013.7
20260507012737 8 0 0.0 0.0 0.00 1.68 0.00 99 1013.4
20260507005736 8 0 0.0 0.0 0.00 1.68 0.00 99 1013.5
20260507002736 8 0 0.0 0.0 0.00 1.68 0.00 99 1013.4
20260506235736 8 0 0.0 0.0 0.00 1.68 0.00 99 1013.4
20260506232735 8 181 0.0 0.0 0.00 1.68 0.00 99 1013.3
20260506225736 8 160 0.0 1.6 0.00 1.68 0.00 99 1013.2
20260506222736 8 0 0.0 0.0 0.00 1.68 0.00 99 1013.1
20260506215736 8 177 0.0 3.2 0.03 1.68 1.68 99 1012.8
20260506212736 8 181 0.0 3.2 0.03 1.68 1.68 99 1012.7
20260506205737 8 181 0.0 0.0 0.03 1.63 1.63 99 1012.6
20260506202736 8 140 0.0 3.2 0.03 1.63 1.63 98 1012.5
20260506195735 8 141 0.0 4.8 0.00 1.60 1.60 98 1012.2
20260506192736 8 326 0.0 4.8 0.00 1.60 1.60 97 1011.7
20260506185736 8 346 0.0 4.8 0.03 1.60 1.60 97 1011.4
20260506182735 8 319 0.0 4.8 0.08 1.60 1.60 96 1011.1
20260506175735 8 324 0.0 6.4 0.08 1.57 1.57 96 1010.8
20260506172735 8 7 0.0 3.2 0.05 1.52 1.52 97 1010.6
20260506165737 8 302 0.0 4.8 0.03 1.50 1.50 97 1010.3
20260506162736 8 337 0.0 3.2 0.08 1.45 1.45 96 1010.4
20260506155735 8 311 0.0 4.8 0.10 1.45 1.45 95 1010.4
20260506152736 8 219 0.0 4.8 0.36 1.37 1.37 94 1010.2
20260506145735 8 297 0.0 3.2 0.79 1.35 1.35 91 1009.9
20260506142736 9 260 1.6 4.8 0.51 1.02 1.02 85 1010.1
20260506135736 12 247 4.8 6.4 0.03 0.53 0.53 82 1009.5
20260506132735 11 305 4.8 6.4 0.00 0.51 0.51 83 1009.8
20260506125735 11 268 0.0 8.0 0.03 0.53 0.51 85 1009.5
20260506122735 11 138 0.0 12.9 0.03 0.61 0.51 86 1009.6
20260506115736 11 19 3.2 6.4 0.05 0.58 0.46 88 1009.5
20260506112737 10 268 0.0 8.0 0.08 0.58 0.46 88 1009.5
20260506105736 10 332 6.4 9.7 0.08 0.53 0.41 90 1009.6
20260506102737 11 242 1.6 4.8 0.08 0.51 0.38 90 1009.5
20260506095735 10 312 4.8 6.4 0.05 0.43 0.30 90 1009.4
20260506092736 10 214 1.6 4.8 0.13 0.41 0.28 91 1009.1
20260506085735 10 165 0.0 4.8 0.23 0.38 0.25 90 1009.0
20260506082735 10 194 0.0 4.8 0.13 0.28 0.13 89 1008.6
20260506072735 10 159 0.0 3.2 0.00 0.13 0.00 86 1008.1
20260506042735 9 142 0.0 3.2 0.00 0.20 0.00 94 1007.4
20260506035735 9 214 0.0 1.6 0.00 0.20 0.00 93 1007.4